Theta_e
318 318 316 316 315 315 315 316 315 315 314 314 314 312 310 308 306 305 302 298 296 296 296 296 295 295 296 295 295 294 295 295 295 296 298 299 299 305 315 319 321 320 320 322 322 322 323 323 322 322 321 321 321 322 321 321 320 319 319 320 320 320 319 318 318 318 318 319 319 319 320 320 320 321 322 322 322 324 325 326 328 328 328 329 330
318 317 317 315 315 314 314 315 315 315 314 313 312 313 309 306 303 303 299 297 297 297 296 295 295 296 295 295 294 295 294 294 294 296 298 298 299 301 312 316 321 322 320 319 320 320 321 322 321 321 321 321 320 321 321 320 319 319 318 319 319 320 318 317 317 317 317 317 318 318 318 319 319 320 320 321 321 321 322 322 323 325 326 327 327
318 317 316 315 314 314 314 314 314 314 315 313 310 312 308 305 301 300 297 296 296 295 294 295 294 296 295 294 294 294 295 294 294 295 298 298 298 299 303 312 316 319 322 320 320 320 321 321 322 321 321 322 321 322 321 320 319 318 318 318 318 319 317 316 316 316 316 316 317 317 317 318 318 319 319 319 320 320 320 321 321 321 321 322 324
318 317 316 314 313 314 313 313 314 313 314 313 309 308 306 301 298 298 296 296 295 294 295 294 294 296 294 293 292 294 293 294 293 294 297 298 299 298 299 303 311 315 317 322 322 321 322 323 324 323 324 324 320 321 321 318 319 316 317 318 320 319 316 315 315 315 315 315 315 316 316 317 317 317 318 318 318 319 319 319 319 320 320 320 320
317 317 315 314 313 313 312 313 313 312 312 312 307 304 300 298 297 297 295 295 294 294 295 294 294 294 294 293 293 293 294 294 294 295 296 298 299 298 298 299 299 307 311 315 319 321 322 322 323 323 324 324 321 321 319 317 318 316 316 317 321 318 316 315 315 315 315 315 315 315 315 316 316 316 317 317 317 317 317 317 318 318 319 319 319
317 315 315 314 312 312 312 312 312 311 310 308 306 301 299 297 296 295 296 294 293 293 293 293 292 292 293 292 292 293 293 294 293 294 293 294 297 299 299 298 297 298 300 308 312 317 319 321 322 322 322 322 320 320 318 317 317 316 317 316 315 315 315 315 315 314 314 314 314 314 314 314 315 315 315 315 316 316 316 317 317 317 317 318 318
316 315 313 313 312 311 311 312 310 309 308 305 304 299 298 297 295 294 294 292 292 293 293 292 292 293 293 293 293 292 292 294 294 293 293 292 295 299 300 298 298 297 298 296 302 308 314 317 319 320 321 320 319 318 318 317 316 316 316 316 315 314 314 315 314 314 313 313 313 313 313 314 314 314 314 315 315 314 314 314 315 315 316 317 317
314 314 313 311 311 311 310 308 307 306 305 302 301 298 296 296 295 295 293 292 292 292 292 291 291 292 292 292 292 293 292 292 293 293 293 292 293 295 297 299 298 297 297 295 297 301 309 312 315 316 317 318 318 317 317 317 316 316 315 315 315 314 314 314 314 313 312 312 312 312 312 312 312 312 313 313 313 313 313 313 313 313 314 314 315
313 312 312 311 309 310 307 307 305 304 301 299 298 297 296 296 294 294 294 292 292 291 290 291 291 292 291 290 292 293 292 293 293 293 293 292 291 291 292 294 296 300 294 294 294 295 304 308 310 311 312 316 317 317 316 316 316 315 315 315 314 314 314 313 313 313 312 311 311 311 311 311 311 312 311 311 311 311 311 312 312 312 312 313 313
312 311 310 310 309 309 307 306 304 302 301 298 297 295 295 296 294 292 293 292 291 291 290 290 292 291 290 290 290 290 291 291 292 294 292 291 291 291 291 291 292 293 293 293 293 295 296 302 306 305 307 312 315 316 316 317 316 315 315 315 315 314 313 313 313 312 311 310 310 310 310 310 310 310 310 310 310 310 310 311 311 311 312 312 313
311 310 310 307 307 307 307 305 303 301 300 298 296 294 294 294 294 292 291 291 291 290 291 291 291 291 290 290 290 290 290 290 292 292 291 291 292 293 292 291 291 291 291 291 291 292 293 292 290 291 295 308 311 313 315 316 315 316 316 315 315 315 313 312 312 311 310 310 310 309 309 309 309 309 309 309 309 310 310 310 310 311 311 312 312
312 311 310 308 306 305 306 304 302 300 300 298 296 294 294 293 293 293 291 290 290 290 291 291 289 289 289 289 288 289 290 290 290 290 290 291 292 292 291 290 290 290 290 290 290 289 291 290 291 291 293 301 307 308 310 311 312 316 317 315 315 315 313 312 311 310 309 309 309 309 309 308 308 309 309 308 308 309 309 310 310 310 311 311 311
312 311 310 308 307 304 305 302 301 300 300 299 298 295 295 294 293 292 291 290 289 289 291 291 290 287 287 287 289 288 289 289 289 288 289 290 290 290 290 290 289 289 289 290 289 289 289 290 290 290 291 292 298 305 305 306 308 313 316 317 316 315 314 313 311 310 309 309 309 309 308 308 308 308 308 308 308 308 309 309 309 310 310 310 310
309 308 308 308 306 303 303 303 300 300 300 299 297 295 294 293 291 289 290 291 290 290 291 291 287 287 286 286 286 285 286 288 288 288 289 290 291 291 290 290 289 289 288 289 288 289 289 289 289 289 289 292 292 291 294 294 297 308 314 317 316 316 315 314 312 310 309 308 308 308 308 308 308 308 307 307 307 308 308 309 309 309 309 309 310
306 306 306 306 305 303 301 302 301 301 299 298 296 295 293 293 292 292 289 288 289 290 291 292 287 285 285 285 281 284 285 286 286 288 289 290 289 290 290 289 290 289 289 289 288 288 289 288 288 288 288 290 291 290 289 293 292 299 306 309 314 317 316 314 312 311 310 308 308 308 308 307 307 307 307 307 307 307 308 308 308 308 308 308 308
303 304 304 305 304 303 301 300 300 299 300 299 297 296 293 292 292 292 291 289 288 289 291 291 287 288 284 285 281 282 280 283 285 285 288 289 289 289 289 289 289 289 288 288 288 288 289 288 288 288 288 289 290 290 290 288 292 294 295 300 306 313 316 314 313 312 311 309 308 308 308 307 307 307 306 306 307 307 307 308 308 307 308 308 308
299 301 302 302 302 303 300 299 298 298 299 299 297 297 296 294 293 292 291 291 289 288 290 290 288 292 288 282 281 282 282 281 283 283 285 286 287 288 289 289 288 288 288 287 288 288 288 288 288 288 288 288 290 289 289 289 289 292 291 294 300 308 313 314 312 312 311 310 309 308 308 307 307 306 306 306 306 307 307 308 308 308 308 307 308
297 298 298 298 299 299 299 297 297 298 298 298 298 297 295 295 294 293 291 290 291 288 288 290 289 289 288 286 286 285 281 282 283 281 284 284 286 287 287 288 288 288 287 287 287 287 288 288 288 288 288 288 289 289 288 288 289 289 288 291 304 306 308 311 312 311 311 310 309 309 308 308 306 306 306 306 307 307 307 307 307 307 307 307 307
297 296 297 296 297 296 297 297 296 296 297 297 297 296 296 295 295 294 293 293 289 288 288 290 289 289 289 288 288 285 285 285 283 279 280 282 284 286 286 286 287 287 287 287 287 287 287 288 288 288 288 288 288 289 288 288 291 290 294 298 303 305 306 308 309 310 311 310 310 308 309 308 307 306 306 306 306 306 306 307 306 306 307 307 307
298 296 295 295 295 296 295 295 296 294 295 295 296 296 296 296 295 295 295 293 292 290 289 289 289 289 289 288 287 287 285 287 283 287 283 280 282 283 284 286 286 287 287 287 286 287 287 287 288 287 287 288 287 288 288 288 288 289 292 298 302 303 305 304 305 306 308 309 309 308 308 309 308 307 306 305 306 306 306 306 307 306 307 307 307
296 297 295 295 295 295 294 294 294 295 293 294 294 295 295 295 295 294 294 293 292 291 290 289 289 289 287 287 287 287 287 287 287 285 283 283 280 282 283 284 284 285 286 287 287 287 287 287 287 288 288 288 287 288 288 288 288 288 292 298 301 302 303 304 303 303 304 305 306 307 308 308 308 307 306 306 305 306 306 306 306 306 306 306 306
295 293 294 294 294 293 293 293 293 294 293 292 291 291 293 293 294 294 294 294 293 292 291 291 290 290 289 289 287 286 287 288 286 285 284 282 285 281 282 283 283 286 287 286 287 287 286 287 287 287 287 287 287 287 288 288 288 288 291 297 299 300 301 301 302 302 301 302 303 304 305 307 308 307 306 306 306 306 306 305 305 305 305 306 306
293 293 293 293 293 292 292 293 292 292 292 292 292 292 291 291 292 292 293 294 294 293 292 291 291 290 289 287 288 288 288 288 288 286 287 286 284 282 280 284 285 284 284 287 287 286 286 286 286 287 287 287 287 287 287 287 289 289 292 297 298 299 300 300 300 301 300 300 301 301 301 303 305 305 305 306 306 305 306 305 304 305 305 305 305
291 291 292 292 292 293 292 291 292 292 292 293 292 292 292 290 290 289 290 291 293 293 292 292 290 290 290 289 288 288 289 289 289 289 289 288 288 285 282 281 283 283 282 284 285 286 286 286 287 287 287 287 287 287 287 288 288 291 291 295 297 299 300 301 300 299 299 299 299 299 300 300 301 302 303 305 306 305 305 305 305 305 305 305 304
290 290 290 291 291 292 292 293 293 293 292 291 292 291 291 291 291 289 289 289 290 290 291 291 291 290 290 290 289 288 288 290 289 288 289 289 287 285 283 281 282 282 282 282 283 285 286 286 286 286 287 286 287 287 287 288 287 290 292 292 296 297 299 299 299 298 298 298 298 298 299 299 299 300 301 302 304 305 305 305 305 305 305 305 304
288 289 290 290 291 291 292 292 292 291 291 290 290 291 291 291 291 289 289 289 289 289 289 289 289 290 289 289 288 288 288 288 289 288 287 287 285 285 284 282 281 282 281 281 281 283 283 285 286 286 286 286 287 287 287 288 287 291 292 289 294 296 297 299 299 299 298 297 298 297 298 298 298 298 299 301 302 303 304 304 304 305 305 304 303
287 288 289 289 290 290 290 291 291 291 291 291 292 290 290 290 290 290 289 288 287 287 287 287 288 287 287 287 287 287 287 286 287 288 288 287 288 286 285 285 282 281 281 281 280 282 282 284 286 285 286 286 286 287 287 287 288 291 291 288 289 294 296 298 299 299 298 298 297 297 296 296 297 297 297 299 301 302 303 303 304 305 304 304 303
287 287 287 288 288 288 288 289 289 290 290 290 290 290 289 288 288 288 288 289 287 286 286 286 286 286 286 286 286 286 286 286 286 288 288 288 287 286 285 286 286 284 280 281 280 281 283 283 282 285 286 286 287 287 288 288 287 291 290 287 286 290 295 296 299 299 297 297 297 296 296 295 296 296 297 297 298 300 300 301 301 302 301 300 298
286 286 286 286 286 286 287 287 287 288 288 288 287 287 287 287 288 287 287 287 286 286 286 285 285 285 285 285 286 287 286 285 285 286 286 286 287 287 286 287 287 285 283 280 281 281 282 284 282 284 286 286 286 286 287 287 288 289 289 287 285 286 292 296 298 298 297 297 297 296 295 295 295 295 296 296 297 298 298 298 298 295 296 296 297
286 286 286 285 285 285 285 285 285 285 286 287 287 287 287 287 287 286 287 286 286 286 285 285 285 285 285 285 285 285 285 285 285 285 285 285 284 285 286 286 287 286 285 283 283 282 282 282 284 283 284 285 286 286 286 286 289 289 288 286 285 285 291 294 295 296 297 297 296 296 296 295 294 294 294 295 296 296 297 297 297 296 296 297 297
283 284 284 284 285 285 285 285 285 285 285 285 285 286 286 286 287 287 286 286 285 286 286 285 286 285 284 284 285 284 285 285 285 284 284 284 284 283 284 285 285 287 287 284 283 282 285 283 283 284 283 285 286 286 286 286 288 289 287 285 284 287 289 291 293 295 296 297 296 296 296 295 294 294 294 294 296 296 296 296 296 296 296 296 297
281 281 282 283 284 284 284 285 285 285 285 285 285 285 285 285 285 286 286 286 285 285 286 286 286 285 285 284 285 285 285 284 284 284 284 284 284 284 284 284 284 285 286 286 284 285 283 285 284 284 284 284 285 284 284 285 286 289 286 285 284 287 286 286 291 293 295 296 296 295 295 295 295 294 294 294 295 296 296 296 296 296 296 296 296
282 282 281 281 281 282 283 283 283 284 284 284 285 285 285 285 285 285 285 285 285 285 285 285 284 284 284 284 284 285 284 284 284 284 284 284 284 284 284 284 284 284 284 284 284 285 283 282 282 283 283 283 283 284 284 284 283 286 287 285 284 283 283 284 285 290 293 295 295 295 295 295 295 294 294 294 294 295 295 295 295 295 295 295 295
283 282 282 282 282 281 281 281 282 283 283 283 284 284 284 284 285 286 286 285 284 284 284 284 284 285 284 284 284 284 284 284 284 284 284 284 283 283 283 283 283 283 283 284 284 284 284 280 280 280 281 283 283 284 284 283 283 284 284 283 283 283 283 283 283 285 291 293 294 294 295 295 295 295 294 294 294 294 295 295 295 294 295 295 294
282 282 282 282 281 282 282 282 281 282 282 282 283 283 283 283 283 284 285 284 284 284 284 284 284 284 283 283 283 283 284 283 283 284 284 284 284 283 284 284 283 284 283 283 283 283 282 281 280 280 280 281 283 283 284 284 284 284 283 282 282 283 283 283 282 283 289 293 294 294 295 294 295 295 294 294 294 294 294 295 294 294 294 294 294
280 281 281 280 280 280 281 281 281 281 281 281 282 282 282 283 283 283 283 283 283 284 284 284 284 283 283 283 283 283 283 282 283 282 282 283 283 283 284 284 284 284 284 282 283 284 283 282 280 280 280 281 282 282 283 283 282 282 283 282 282 281 282 282 281 281 285 292 293 293 294 294 294 294 294 294 294 294 294 294 294 293 293 293 293
279 279 280 279 280 279 280 279 280 280 280 281 281 281 282 282 282 282 282 282 282 283 283 284 285 284 283 283 283 283 282 282 283 282 282 282 282 283 283 284 284 284 284 283 283 282 283 282 281 280 280 281 282 281 283 282 280 281 281 281 281 281 280 280 280 281 284 289 291 291 292 293 293 293 294 294 294 294 294 294 294 293 292 292 292
279 279 279 279 279 279 279 279 279 279 280 280 280 280 281 281 281 281 282 282 282 282 282 283 283 283 283 283 284 283 283 282 283 283 282 282 282 282 282 283 283 283 282 282 282 283 282 283 283 279 279 279 279 279 281 282 280 279 279 279 278 279 279 278 279 280 281 283 285 288 290 291 292 293 293 294 294 294 294 294 293 293 292 291 291
278 278 278 278 278 278 278 279 278 278 278 279 279 280 280 280 281 281 281 281 281 281 282 282 282 282 283 283 283 283 283 283 283 283 283 283 283 282 283 282 282 282 282 282 282 282 282 282 281 280 280 280 280 279 280 281 281 280 279 278 277 278 278 279 279 279 280 281 285 288 288 288 290 290 292 293 294 294 294 293 293 292 291 291 291
277 278 278 278 278 278 278 278 278 278 278 278 278 278 279 280 280 280 280 281 281 281 281 281 282 282 282 283 283 283 283 284 284 284 284 283 284 283 283 283 282 282 282 282 282 282 282 282 282 280 279 279 279 278 279 279 279 278 279 278 277 277 277 279 280 279 279 280 280 283 287 288 289 290 291 292 293 293 293 293 292 292 290 291 291
278 277 277 277 277 278 278 277 277 277 278 278 278 278 278 279 279 279 280 280 280 280 281 281 282 282 282 283 283 283 284 285 286 286 286 286 285 284 284 283 283 283 283 282 282 282 282 282 282 281 278 278 279 279 277 278 278 279 279 279 278 279 278 278 279 280 280 279 279 280 282 284 284 284 285 286 288 290 291 291 290 290 290 291 291
277 277 277 277 277 277 277 277 277 277 277 278 280 282 283 281 280 280 281 281 280 280 280 280 281 281 282 282 283 284 285 285 285 286 287 288 288 286 285 285 284 284 283 283 283 282 282 282 282 281 278 278 279 279 279 279 280 280 279 278 277 278 278 277 278 279 280 279 278 278 280 283 282 282 283 283 285 287 287 288 287 288 289 291 291
277 277 277 276 276 276 276 276 276 276 277 277 280 282 283 283 281 280 281 281 281 281 280 280 280 281 281 281 282 283 284 284 284 286 287 288 288 288 288 288 287 285 284 283 283 283 283 282 283 282 281 280 280 280 280 280 280 280 279 279 278 278 277 276 275 277 280 279 278 278 278 281 282 280 281 281 282 283 285 285 289 290 290 290 290
277 277 276 276 276 276 276 276 276 276 276 279 281 282 282 283 282 280 280 280 281 280 280 280 280 280 280 281 281 282 282 282 282 283 284 287 288 288 288 288 289 289 289 286 284 284 283 283 283 283 283 282 281 281 280 280 279 280 280 279 279 279 278 277 277 277 278 280 278 278 278 280 281 280 279 280 281 281 283 286 289 290 290 290 290
276 275 275 276 275 276 275 275 275 275 275 279 280 281 281 282 282 281 279 279 279 279 280 280 280 280 280 280 280 281 282 284 284 283 283 283 285 287 288 288 288 289 289 290 290 286 285 285 284 283 283 283 283 281 281 281 281 279 279 279 279 279 279 279 279 279 278 280 279 278 277 279 279 279 278 279 280 280 282 287 289 290 290 289 289
274 274 274 274 274 274 274 274 274 274 274 277 279 280 280 281 282 281 278 278 278 279 279 280 280 280 280 280 280 280 281 281 282 282 282 282 282 283 283 284 284 285 288 289 289 289 288 286 285 284 285 285 284 284 282 283 280 279 279 279 280 279 279 280 281 281 279 281 278 278 277 278 279 278 277 278 280 280 280 284 288 290 290 289 288
272 272 272 272 272 272 273 273 273 273 273 277 278 279 280 281 281 281 277 277 277 277 278 278 279 280 280 280 280 280 280 281 281 282 281 281 282 282 282 282 282 283 284 285 286 286 287 287 287 286 286 287 286 286 282 283 282 282 282 281 281 281 281 282 281 281 280 281 280 279 276 278 278 277 277 278 279 279 280 284 288 289 289 289 289
269 270 270 270 270 270 270 271 270 270 271 276 277 278 279 279 280 276 275 275 275 275 275 276 277 279 279 280 280 280 280 280 283 285 285 283 281 280 280 281 282 282 283 286 287 288 287 287 287 287 287 287 288 287 284 282 283 283 283 282 280 280 280 279 278 279 277 279 280 279 277 276 278 277 277 278 278 277 278 279 286 288 288 289 288
266 266 266 267 268 268 268 268 268 269 269 272 276 277 277 278 277 274 274 273 273 273 273 274 275 276 277 277 278 279 279 279 282 285 286 286 282 281 280 280 281 281 282 283 287 289 289 289 289 290 290 290 291 291 291 288 284 283 282 280 279 279 278 277 277 277 276 278 279 279 278 274 277 277 277 276 277 277 277 277 280 287 288 288 288
263 264 264 265 265 266 266 266 267 267 267 270 274 275 276 276 275 272 272 271 271 271 272 273 273 274 275 278 279 278 278 279 282 284 285 284 282 281 281 280 280 280 281 283 283 284 288 289 289 289 289 290 290 291 291 291 289 286 281 279 280 280 277 278 277 277 277 277 278 280 277 276 277 277 275 273 275 276 276 277 278 282 287 287 289
262 263 263 262 263 263 264 265 267 266 265 267 271 272 273 274 272 270 270 270 270 271 271 271 272 273 273 275 277 277 277 279 283 284 284 283 281 281 281 280 280 279 281 282 282 281 282 283 284 286 286 287 287 287 288 290 290 286 283 282 282 280 278 278 278 275 272 274 278 280 277 276 275 276 275 273 270 273 274 276 277 278 281 283 284
Wind_Speed
8 8 7 7 7 7 7 7 7 6 6 6 8 7 7 7 7 6 6 5 5 4 4 4 4 4 5 3 3 4 3 3 4 3 3 2 2 3 5 5 6 4 2 1 2 2 4 4 3 3 4 4 5 5 5 5 4 2 2 3 4 6 5 4 4 4 4 5 6 6 6 6 6 6 6 6 6 7 8 9 10 12 11 11 12
7 7 8 7 7 7 7 7 7 7 7 8 7 8 7 6 6 6 6 6 6 7 5 5 4 4 5 4 4 5 4 4 3 5 3 2 2 2 5 5 6 6 4 0 2 3 3 4 2 1 2 4 4 5 5 4 4 3 1 3 4 6 4 3 3 4 4 4 5 6 5 6 6 6 6 6 6 6 6 5 6 9 11 12 10
8 8 6 7 7 7 7 7 7 7 7 7 6 7 7 8 7 7 7 7 7 7 7 6 5 5 4 5 5 5 4 3 3 4 4 3 3 2 3 6 6 7 8 4 3 1 2 4 6 4 4 9 6 8 6 6 4 4 3 3 4 6 4 2 3 4 4 3 5 5 5 5 5 6 6 6 6 6 6 7 7 6 6 7 9
8 8 8 7 7 7 7 7 8 7 7 7 7 6 7 6 7 7 6 6 6 6 6 7 6 6 4 5 4 6 5 5 4 4 4 4 3 2 3 3 6 7 8 9 8 6 6 7 7 7 9 7 8 8 8 3 5 1 3 4 8 6 2 2 3 2 3 3 3 4 5 5 5 5 6 6 6 6 6 6 6 6 6 6 6
8 9 8 8 7 7 7 8 7 7 7 7 7 6 6 6 6 5 6 5 5 5 4 5 6 6 6 5 6 5 5 5 5 6 5 5 4 4 3 3 3 6 8 8 9 9 8 8 9 9 8 12 4 9 5 4 4 2 3 3 11 7 5 3 3 3 3 2 3 3 4 4 4 5 6 6 6 5 5 5 5 5 6 6 6
7 7 7 7 7 7 8 7 7 7 7 7 8 7 7 7 7 7 6 7 7 6 6 6 6 5 5 4 5 6 5 5 5 6 5 5 5 4 4 3 3 3 3 7 8 9 9 9 9 9 10 9 7 7 5 5 5 6 6 4 2 1 4 5 4 3 3 3 2 3 3 3 4 4 5 5 6 6 5 5 6 6 6 5 6
6 8 6 6 7 6 7 7 6 6 7 7 7 6 7 8 7 7 6 6 6 7 7 7 7 7 7 6 6 6 5 6 5 4 4 4 5 4 5 4 4 3 3 3 5 7 8 8 8 9 9 8 6 4 6 5 5 4 3 3 3 3 1 3 3 4 3 2 3 2 3 3 3 4 4 5 4 4 4 3 4 4 4 5 4
6 6 7 6 7 7 6 5 6 6 6 6 6 8 7 6 7 8 7 6 7 6 6 7 6 6 5 6 6 6 6 6 6 5 4 4 5 4 4 4 4 4 3 3 3 4 7 7 7 7 8 6 5 4 4 5 5 5 3 4 4 4 4 4 5 4 4 4 3 3 2 2 2 2 3 3 2 3 3 3 3 2 3 2 3
6 6 7 7 7 7 6 6 5 7 7 6 6 6 7 7 6 6 7 7 7 6 4 6 6 6 5 5 5 6 6 7 6 5 4 4 4 4 4 4 4 4 4 4 3 3 5 6 6 6 6 6 5 4 2 5 6 5 6 5 5 5 5 5 4 5 5 3 3 3 3 2 2 2 2 2 2 2 2 3 3 2 2 3 3
5 6 6 6 6 7 6 6 6 7 7 6 6 4 5 6 7 4 6 6 6 7 7 5 4 4 4 4 4 3 4 4 4 4 5 4 4 4 5 5 5 5 4 4 4 4 3 4 5 4 4 4 3 3 2 2 1 7 8 8 7 7 6 6 6 6 5 4 4 4 4 4 3 3 3 3 2 2 2 2 2 2 2 2 3
5 5 6 6 6 6 6 6 6 7 7 6 5 5 4 5 8 7 4 5 7 6 5 5 4 3 2 1 1 1 2 2 3 4 5 4 5 4 4 5 5 5 5 5 4 4 4 4 4 3 1 2 2 1 1 1 1 4 9 9 10 9 8 7 6 5 5 5 5 5 4 4 4 3 3 2 2 2 2 1 1 1 2 2 2
6 6 7 7 6 7 7 6 6 7 7 7 7 7 9 8 7 8 7 3 2 5 6 6 4 4 2 2 2 1 1 1 3 4 4 4 4 4 5 4 5 5 5 6 6 4 5 4 4 4 3 2 1 1 0 1 3 3 7 12 12 11 11 10 8 7 6 5 5 5 4 4 4 4 4 3 3 3 3 2 2 1 2 2 2
4 5 6 6 6 6 6 6 6 7 8 9 9 9 8 7 7 5 8 6 4 5 6 8 8 2 2 1 0 1 1 0 2 4 4 4 3 6 5 4 4 5 5 5 5 5 5 5 4 4 4 4 3 2 2 0 2 4 5 10 14 14 12 11 9 8 7 7 6 5 5 3 4 4 4 4 3 3 4 4 3 3 2 2 2
2 2 3 5 6 5 6 7 7 7 8 6 6 6 6 6 6 5 4 9 7 8 8 10 3 8 7 3 1 3 2 2 4 5 4 4 6 6 5 6 6 4 3 4 4 4 5 6 5 5 4 5 4 3 2 1 3 4 5 6 13 16 16 13 12 10 9 8 7 6 6 5 5 5 4 4 4 4 5 4 3 3 3 3 2
0 0 1 2 3 3 5 5 6 6 6 6 6 7 8 8 8 9 6 4 4 4 9 11 7 4 3 5 3 4 3 3 5 8 6 6 6 7 7 6 7 6 5 5 5 5 4 4 5 5 5 5 5 4 3 3 2 3 4 5 7 14 17 16 14 12 11 9 9 7 7 6 6 6 5 5 5 5 5 4 4 4 4 3 3
1 0 1 0 1 2 2 2 4 4 6 7 7 8 7 6 7 8 7 7 5 7 9 10 6 11 4 7 3 4 2 9 10 4 6 6 7 7 5 7 7 6 5 7 6 6 6 4 5 6 5 5 5 4 6 4 3 1 1 3 5 7 17 17 14 14 12 11 10 9 9 8 7 7 5 5 5 5 5 5 5 4 4 4 4
3 2 1 2 1 1 2 3 3 3 4 5 6 8 9 9 10 9 9 9 8 5 7 7 7 12 8 5 2 1 7 3 4 5 3 5 7 7 7 7 8 8 7 7 6 7 7 5 6 5 6 5 5 5 5 4 3 2 1 2 3 5 10 15 15 14 12 12 12 10 10 9 8 7 6 6 6 6 6 5 5 5 5 5 4
3 3 3 3 4 2 1 2 3 4 4 5 5 4 5 6 7 8 9 7 8 6 6 8 7 8 5 3 6 7 5 4 4 5 0 3 4 5 7 7 6 7 7 7 8 8 7 8 7 8 7 6 5 5 5 5 4 3 3 2 2 2 3 12 14 14 13 13 12 11 11 10 9 8 8 7 8 8 7 6 6 6 5 5 5
3 3 4 4 3 3 2 1 2 3 3 4 5 6 6 8 7 7 9 8 5 8 9 9 7 8 8 9 2 0 4 7 7 3 1 3 4 6 7 5 6 7 8 8 8 7 7 7 8 8 7 6 6 6 5 5 5 5 6 6 7 5 4 7 12 14 14 13 13 12 11 12 11 10 8 8 9 8 8 8 7 6 6 7 6
1 3 3 3 3 4 4 3 2 3 2 4 6 6 5 4 6 8 8 8 9 10 8 7 11 9 9 11 8 2 2 1 3 10 6 4 6 4 3 7 6 7 8 9 9 9 8 8 7 8 7 7 7 7 6 6 5 4 5 9 10 9 8 6 6 10 13 13 12 12 11 11 11 10 9 9 10 8 9 9 8 8 7 7 6
1 1 2 2 3 3 4 4 4 4 2 3 4 4 5 6 6 6 7 7 7 7 7 8 9 9 5 9 7 8 4 3 1 1 6 6 5 8 8 2 3 7 9 9 8 9 10 9 8 8 7 7 7 7 7 7 7 6 6 11 12 13 12 11 8 7 8 9 11 12 12 12 11 11 10 10 10 10 10 9 9 8 8 7 7
8 4 3 2 3 3 3 4 4 4 3 3 4 4 4 5 5 6 7 9 7 8 10 8 8 8 8 6 9 7 5 5 4 3 3 3 7 7 8 11 10 11 11 9 12 9 8 8 8 8 8 8 7 7 7 8 7 7 8 12 13 14 14 14 13 11 9 8 8 9 9 11 12 11 11 11 10 11 11 10 10 9 8 8 8
8 9 9 8 6 4 3 4 4 4 4 4 4 4 5 5 6 5 6 8 8 8 9 8 7 8 9 7 9 9 11 10 9 6 7 6 3 4 4 9 13 9 8 12 9 9 8 8 9 9 9 8 7 7 7 8 8 9 11 14 15 15 15 15 15 15 13 12 11 8 7 8 11 12 11 11 12 12 11 11 10 10 9 9 8
7 7 8 9 9 8 5 4 4 4 4 4 4 5 5 4 5 5 6 6 7 7 8 10 9 8 10 8 8 7 8 8 6 8 9 9 8 8 7 3 5 6 3 3 5 7 9 10 10 10 9 8 8 8 7 8 8 12 12 15 16 17 17 17 17 16 15 15 13 12 10 9 8 9 10 11 12 12 12 11 11 10 10 10 9
9 8 8 9 7 8 8 7 5 4 4 4 5 5 5 5 5 5 5 6 7 8 8 9 9 10 9 9 9 8 10 7 6 7 6 6 5 8 4 3 7 4 4 3 5 6 7 8 9 9 9 9 8 8 8 8 8 13 15 11 18 16 18 18 17 17 17 16 15 14 14 12 12 10 10 11 12 13 13 12 12 11 11 11 10
7 8 8 8 7 7 7 7 5 5 4 4 4 5 5 6 6 6 6 7 6 7 8 8 9 9 7 7 8 8 9 7 8 7 7 6 7 8 5 4 2 4 1 3 2 4 5 8 9 8 8 9 9 9 9 10 9 15 17 11 14 18 19 19 19 19 18 17 16 15 15 14 14 13 13 13 13 13 13 13 13 12 11 10 9
7 6 8 8 8 8 8 7 7 6 5 5 5 4 4 5 5 6 6 6 6 6 6 7 9 8 8 8 8 7 7 7 7 9 7 9 8 7 7 8 4 3 5 3 3 8 4 6 8 8 10 10 9 10 11 9 9 14 16 11 9 17 18 21 21 21 20 19 18 17 16 15 14 14 14 13 14 13 13 13 13 13 11 10 11
7 8 9 9 9 9 8 8 7 6 6 5 5 5 5 5 6 6 7 5 6 6 7 6 8 8 9 8 7 8 6 7 7 8 8 8 8 6 7 9 11 11 4 7 5 7 5 6 3 9 10 11 10 10 11 10 9 14 17 10 9 11 18 22 22 22 21 20 20 19 18 17 16 15 15 14 14 14 14 13 13 10 9 8 4
7 6 8 8 8 9 9 10 9 8 7 7 6 5 5 5 6 6 7 7 6 7 7 7 7 7 7 8 9 8 8 6 7 7 7 7 8 8 8 12 9 11 10 7 8 8 7 9 8 9 12 11 11 9 10 11 10 13 11 10 10 9 14 22 22 22 22 22 21 20 20 18 18 17 15 15 14 14 14 14 10 1 3 5 7
6 7 7 9 9 8 7 8 8 9 9 8 7 7 6 6 6 6 6 6 6 7 6 7 7 6 7 7 7 7 7 7 8 7 7 8 7 7 8 9 9 13 12 11 12 9 7 6 8 6 9 12 11 9 10 11 11 15 11 11 10 10 15 21 22 22 23 23 22 21 21 20 19 18 17 16 16 15 15 15 12 10 8 8 8
7 8 7 7 7 9 8 9 9 8 7 8 7 7 7 7 7 7 6 5 6 7 7 6 7 6 7 8 8 8 7 8 8 7 7 7 7 7 7 7 8 12 13 9 12 6 8 9 10 8 9 13 11 10 9 9 11 16 12 11 11 11 16 16 20 22 22 23 22 22 21 21 20 19 19 18 17 17 16 14 13 12 11 11 11
5 5 6 7 8 8 8 8 9 9 10 9 8 7 7 6 6 7 7 6 7 7 8 7 6 6 7 9 9 8 7 7 8 7 8 8 7 7 7 7 8 9 10 11 13 15 7 10 10 11 11 12 12 12 11 9 9 18 12 12 11 10 12 11 17 23 22 23 22 22 21 21 20 20 19 18 18 17 16 16 15 14 13 13 12
8 8 6 5 5 6 6 7 7 8 8 9 9 8 8 8 8 7 7 7 7 8 7 9 7 6 7 8 9 9 7 8 8 7 8 7 7 7 7 7 8 8 8 10 13 14 5 5 4 7 9 9 9 12 12 11 9 11 13 11 10 11 11 11 11 18 22 23 23 22 22 21 21 20 20 19 18 18 17 17 15 15 14 14 13
7 9 11 10 9 8 5 6 7 7 7 8 7 7 8 9 9 6 6 7 8 8 7 8 8 7 7 8 10 9 8 9 9 9 8 8 8 8 8 8 8 8 8 8 11 10 12 3 5 1 5 8 10 10 14 14 13 10 12 11 10 12 11 10 10 11 21 22 22 22 22 22 21 21 21 20 19 19 18 18 17 16 15 15 14
5 6 6 7 8 10 10 10 9 7 7 7 7 7 8 8 8 8 8 7 7 8 8 9 9 8 8 8 9 8 6 8 9 8 8 8 8 9 11 8 9 10 8 9 8 10 10 8 6 6 8 8 12 12 14 12 12 12 14 13 13 11 10 11 11 9 15 22 22 21 22 22 22 22 22 21 20 20 19 19 18 17 16 16 16
7 7 5 6 6 8 9 10 10 11 11 9 7 6 8 8 8 9 8 9 9 8 9 9 8 8 9 9 8 8 8 10 10 8 8 8 9 9 10 9 9 11 8 7 10 11 8 8 6 9 7 9 10 5 8 7 9 10 12 12 8 9 9 9 10 10 12 22 21 21 22 23 23 22 23 22 22 22 21 20 19 18 18 18 17
5 6 6 5 6 5 7 8 9 9 10 10 12 11 9 6 7 9 9 8 8 9 10 10 9 9 9 9 9 7 8 10 9 8 7 8 9 9 10 9 9 9 8 8 10 9 10 11 7 5 5 7 5 5 9 11 8 7 6 9 11 11 10 8 7 8 11 20 21 22 21 22 23 24 24 24 23 23 22 21 20 19 19 19 17
7 5 7 7 6 8 7 7 7 8 9 9 9 10 11 12 10 9 8 8 8 8 9 9 9 8 9 10 9 8 8 10 10 8 7 9 9 10 10 10 9 7 9 9 9 10 11 12 10 6 5 8 5 5 9 11 11 9 7 7 4 7 8 8 10 9 8 9 10 12 16 19 23 25 24 23 24 24 23 22 21 21 20 19 18
7 8 7 7 7 7 8 8 8 9 8 8 9 10 10 10 10 12 12 11 10 9 7 8 8 8 9 9 10 9 10 10 10 9 9 9 9 10 11 10 9 8 10 10 9 11 11 12 10 8 8 8 8 10 7 10 10 11 14 12 9 8 8 12 12 9 8 10 10 13 12 11 13 13 20 24 24 24 24 23 22 22 21 20 19
8 7 8 8 9 7 8 8 9 8 8 9 9 9 9 9 10 10 10 11 12 11 11 10 9 9 9 9 9 10 10 10 10 10 9 10 9 10 9 8 8 9 10 10 9 10 11 11 12 9 8 8 7 2 2 6 8 8 8 10 14 13 14 13 13 12 11 10 11 10 11 12 13 18 22 23 24 24 24 23 24 22 22 21 20
8 8 8 8 9 9 8 8 9 8 9 10 9 8 9 10 9 10 11 11 12 12 12 12 11 10 10 9 10 10 11 14 17 15 13 11 9 10 9 8 9 9 10 9 9 10 10 11 12 8 7 8 10 10 9 12 16 18 12 9 10 10 9 8 10 10 10 12 10 9 10 11 10 11 10 10 13 20 20 22 17 23 23 22 21
10 9 9 10 10 10 11 10 9 9 9 8 10 17 16 12 11 11 11 11 11 11 11 12 12 12 11 11 11 16 17 18 18 18 18 18 19 14 11 8 9 10 10 10 10 10 10 11 12 10 8 11 12 13 14 15 13 6 8 13 13 8 7 10 8 8 9 9 10 12 11 8 10 10 10 12 10 13 10 12 11 14 19 24 22
13 12 11 12 11 11 12 12 13 11 10 10 17 20 21 23 15 12 12 12 12 11 11 12 13 13 12 12 11 13 14 15 15 19 19 20 20 21 21 19 15 12 10 12 12 11 11 12 11 11 11 13 14 12 13 11 10 13 14 13 12 9 11 12 14 7 9 12 11 9 10 10 10 13 12 11 11 11 10 11 14 19 20 23 22
13 11 12 12 12 12 11 12 13 13 13 15 23 23 23 23 21 14 12 12 12 12 12 13 13 12 13 12 11 10 10 12 12 11 14 18 20 21 22 21 21 23 20 15 13 11 12 12 12 12 12 14 13 11 11 9 10 11 10 11 14 15 14 14 13 12 8 16 12 12 13 10 11 12 11 12 11 11 12 15 21 22 22 22 21
12 12 13 13 13 13 12 13 14 14 14 19 25 26 26 26 25 21 12 13 14 14 14 15 15 15 13 12 12 11 10 16 14 12 12 12 16 21 21 22 22 23 23 25 23 16 10 12 13 14 14 13 13 11 12 13 9 13 11 12 14 14 13 14 14 10 7 16 13 12 15 13 13 13 13 11 10 10 12 18 23 24 24 24 23
12 13 13 14 14 14 14 14 14 14 16 18 26 27 27 27 27 23 13 14 15 15 16 16 15 15 15 14 13 13 12 12 11 12 12 12 12 12 12 12 13 17 22 25 25 26 21 15 13 16 15 13 13 9 9 12 14 15 14 15 13 13 13 17 15 8 6 14 19 16 12 9 12 12 13 11 10 11 11 16 26 26 25 24 24
13 13 13 14 14 15 15 14 15 16 16 25 28 29 28 29 29 25 15 15 15 15 16 16 17 16 16 15 15 15 15 13 12 12 12 12 12 12 12 13 13 13 13 14 15 15 15 15 16 18 18 14 13 12 6 13 16 15 16 16 16 16 16 12 6 7 9 12 14 10 14 11 9 11 14 11 10 11 10 15 25 26 26 25 25
12 13 14 13 16 17 16 15 16 18 18 29 30 30 30 29 31 19 14 14 14 14 16 17 16 15 14 14 15 15 16 16 15 20 19 14 12 13 15 14 13 13 13 15 19 18 16 15 15 17 17 16 15 14 8 10 11 11 10 8 6 7 10 10 14 9 7 9 14 13 10 6 10 14 11 7 8 9 9 9 20 26 25 25 26
13 13 13 14 13 14 16 15 15 17 18 24 30 30 30 32 25 15 14 14 14 15 17 16 15 15 16 16 17 17 17 18 18 23 24 21 15 15 15 15 14 13 13 13 18 23 23 23 23 23 22 21 21 23 23 18 13 10 9 10 14 12 12 13 13 9 10 9 11 13 9 4 9 11 7 6 9 9 9 10 10 20 25 25 26
14 12 12 13 12 11 13 14 12 15 18 23 30 30 31 32 27 19 14 14 15 16 16 16 15 14 18 30 26 19 19 19 22 27 27 21 16 16 16 16 16 15 15 13 10 12 21 24 25 26 26 24 22 23 24 24 22 15 14 17 15 11 13 14 16 12 8 7 10 12 8 9 6 7 6 2 3 4 7 6 8 10 19 21 26
11 10 10 11 14 11 10 14 22 22 17 22 29 30 33 31 24 16 14 13 13 14 13 14 14 14 14 19 30 28 24 25 32 31 31 24 17 16 16 16 17 17 16 14 13 11 10 12 15 17 17 20 19 16 16 23 22 19 18 17 12 13 16 17 14 7 6 9 12 14 13 7 10 9 10 6 6 3 3 7 8 9 9 9 12
Wind_Direction
172 176 159 171 166 166 168 170 164 168 164 169 159 159 158 161 165 176 184 187 180 155 132 122 128 128 130 117 123 122 120 104 105 116 116 115 85 45 38 28 30 37 38 45 150 165 186 175 216 182 164 151 177 187 144 114 107 85 139 129 106 97 88 80 82 78 70 77 74 71 66 68 68 72 69 70 71 75 69 64 61 54 52 54 53
173 169 168 170 167 167 169 171 171 169 171 175 175 163 164 164 169 177 177 179 171 170 143 143 137 143 142 144 153 149 152 148 130 130 142 117 92 62 45 43 38 50 47 8 207 184 195 193 222 165 146 165 181 211 142 145 146 125 45 118 128 101 97 92 86 80 80 79 78 71 71 75 75 72 73 69 67 65 61 55 58 60 54 52 50
172 171 172 164 167 168 177 169 171 181 181 174 171 170 163 171 174 175 176 175 175 166 153 152 155 160 165 153 173 147 156 153 127 137 131 141 117 87 53 52 50 40 44 74 83 125 186 191 204 203 228 214 178 193 160 174 147 183 155 142 149 115 101 105 97 89 79 83 91 87 84 82 79 82 79 74 75 74 72 72 71 64 60 53 53
169 171 172 168 169 173 172 175 185 181 184 174 168 171 169 170 170 172 172 167 166 164 159 146 159 169 166 163 165 153 157 152 127 126 139 142 137 112 86 65 58 52 45 56 68 64 61 54 43 28 15 345 199 216 200 166 151 112 184 180 109 132 155 127 112 111 97 97 95 96 91 85 89 94 85 81 73 74 69 71 71 68 68 71 72
176 171 171 170 168 170 177 186 182 175 182 177 163 162 158 160 170 162 159 156 156 171 154 149 150 169 162 173 160 159 163 142 137 132 145 159 152 139 121 99 77 59 51 46 51 63 66 58 45 39 19 2 258 232 169 178 144 175 203 221 143 119 153 141 126 126 123 108 95 111 97 99 99 98 95 92 86 80 80 79 75 74 73 75 72
165 170 167 169 171 174 176 185 181 175 174 167 170 170 167 164 169 159 169 162 172 173 159 163 172 163 168 176 162 169 160 150 157 158 155 153 161 151 142 119 99 83 66 46 41 50 60 60 59 46 33 17 327 176 130 131 161 191 214 193 291 138 154 152 151 142 120 124 122 123 120 108 110 116 110 100 93 81 73 65 65 68 66 78 82
164 161 170 168 170 176 180 185 172 167 170 178 167 173 163 170 161 166 166 168 173 176 172 171 167 174 181 173 172 171 155 161 159 158 160 153 150 164 155 144 134 111 89 76 53 46 52 62 57 53 46 36 32 95 133 148 165 197 210 177 182 181 169 154 161 153 135 122 128 120 126 120 123 112 106 84 89 85 72 73 64 60 60 50 63
158 157 161 171 171 177 183 163 168 162 169 170 165 172 172 164 178 159 162 185 173 186 174 166 170 175 182 175 178 171 159 157 162 165 177 135 156 157 158 160 155 140 130 108 91 66 65 63 62 55 51 46 50 84 142 164 182 197 213 174 180 178 164 175 177 150 152 150 153 153 133 143 148 122 94 99 108 101 98 101 101 86 78 76 84
156 160 158 167 170 172 171 168 160 162 164 172 177 172 165 168 178 183 168 172 183 172 175 166 174 179 180 175 181 169 165 165 164 170 150 155 166 137 136 169 156 147 144 135 122 109 81 79 72 57 38 44 58 73 120 183 187 201 196 188 184 179 163 177 161 149 138 149 171 173 168 153 169 156 132 149 136 126 127 120 118 119 131 123 121
151 157 160 167 168 170 170 167 164 163 165 166 179 159 166 161 174 195 178 158 183 176 180 176 164 170 180 182 192 170 175 170 170 166 159 176 176 158 165 157 144 157 153 153 153 139 124 104 90 72 46 38 71 76 65 49 225 208 201 194 187 176 174 179 161 157 149 171 187 191 198 185 192 199 196 196 201 170 175 160 161 154 146 145 136
150 155 155 161 164 171 172 176 167 163 161 168 164 164 167 180 175 188 196 190 178 188 167 147 132 122 132 199 162 166 203 187 167 165 179 182 181 184 154 159 146 157 160 165 168 158 148 141 126 120 92 48 63 82 72 38 348 223 212 200 194 186 184 188 172 156 165 186 203 207 205 216 204 212 213 206 213 241 217 196 160 191 147 143 140
158 165 166 167 171 178 181 173 169 162 168 172 180 178 185 184 194 179 182 186 145 154 130 124 85 78 59 19 14 37 107 191 174 187 190 186 186 163 174 185 159 165 165 171 171 171 164 163 161 161 158 155 145 90 9 338 324 261 242 216 201 194 186 189 193 185 184 196 212 210 217 222 222 212 208 208 228 231 230 250 179 223 157 144 151
161 161 174 173 181 178 177 177 173 175 180 190 187 189 189 182 179 180 173 179 191 169 166 140 132 82 15 17 333 345 340 360 218 221 220 207 187 173 187 172 186 173 177 169 172 176 171 171 175 173 179 180 184 167 192 274 294 273 260 244 206 206 186 190 188 196 190 201 209 211 206 225 232 227 215 219 226 232 229 228 199 200 185 182 172
149 165 171 181 177 176 184 184 175 189 195 189 183 186 179 178 164 184 206 185 197 182 175 130 177 175 159 210 321 319 294 306 264 247 226 204 194 182 178 181 188 193 179 169 180 180 178 177 176 181 188 187 189 186 206 227 273 289 269 284 222 200 200 188 201 189 190 204 203 201 187 218 228 230 223 224 216 219 230 216 220 200 198 190 182
34 106 171 208 200 181 197 188 188 183 181 187 187 192 192 187 181 185 195 230 200 194 185 193 167 134 100 94 231 209 300 299 266 236 214 203 192 189 185 184 193 190 183 181 192 197 195 182 182 188 192 194 186 187 190 201 227 266 315 302 300 223 204 200 195 185 191 201 196 192 182 196 213 219 224 228 232 226 228 217 215 218 207 211 206
14 5 322 296 206 206 189 186 206 196 194 192 193 202 195 193 192 202 176 188 199 208 209 200 141 140 189 202 201 139 274 239 222 252 203 210 196 204 189 197 190 195 180 192 197 197 203 190 189 194 197 195 184 184 186 193 200 174 290 339 296 282 209 203 186 186 192 197 197 189 189 190 201 212 222 232 238 235 218 209 211 209 204 206 201
355 344 314 271 241 204 174 205 209 213 209 210 203 206 202 199 196 196 191 192 208 210 220 222 210 202 156 110 47 265 220 233 166 263 193 213 223 208 206 199 195 192 191 203 196 198 193 196 196 196 201 195 189 189 187 188 182 198 223 285 329 342 229 192 187 190 192 200 194 190 190 195 201 205 212 221 231 226 217 210 210 204 210 211 197
2 352 342 340 323 318 261 182 206 208 211 218 215 215 216 212 207 202 206 215 201 192 214 233 233 246 246 238 150 179 180 219 126 259 328 248 230 219 212 208 198 197 201 199 200 203 198 196 194 197 197 195 191 192 190 189 191 184 206 223 182 110 164 184 188 189 191 200 195 190 192 193 196 202 210 218 228 221 211 211 206 207 208 205 197
351 6 348 337 328 324 319 285 262 251 233 226 223 218 215 213 208 209 211 211 189 203 207 212 235 257 259 261 289 128 161 128 211 83 280 284 237 224 232 222 210 204 206 210 204 199 208 200 197 195 198 190 187 193 194 196 191 192 197 206 186 161 136 167 181 185 191 192 192 194 197 197 195 201 202 217 225 221 217 210 208 205 202 205 195
346 340 359 343 332 319 316 309 288 261 246 234 235 231 230 234 221 220 217 214 208 211 207 202 200 225 223 245 256 285 239 357 148 181 170 170 238 256 276 226 220 223 213 209 204 203 201 205 200 199 198 197 182 190 192 191 193 196 200 204 195 183 172 155 168 189 193 196 197 197 203 204 199 201 199 210 225 215 217 210 210 208 204 202 199
339 301 320 330 317 294 308 311 302 285 234 255 257 255 239 231 225 223 221 224 219 222 210 213 212 224 204 243 253 248 261 251 329 161 170 192 244 196 214 221 243 243 231 216 209 205 200 197 198 198 201 201 189 188 188 185 189 193 201 203 199 196 190 183 171 167 177 194 200 203 206 207 206 205 200 211 217 218 222 210 212 214 206 202 202
331 322 311 302 297 292 288 284 280 283 288 248 263 270 263 254 242 233 227 228 222 219 221 221 218 224 214 215 221 234 253 266 262 232 297 210 220 197 199 188 206 231 216 213 215 206 197 191 194 198 201 203 196 191 188 189 186 187 200 202 200 199 198 195 187 181 176 181 188 199 210 214 210 207 208 212 213 220 218 211 211 210 211 204 203
7 1 352 341 323 302 273 272 282 286 289 291 263 248 253 250 251 250 245 236 231 229 232 231 224 226 227 219 225 210 216 216 216 210 211 223 231 233 206 206 206 225 225 213 209 203 196 192 195 199 200 200 199 193 193 194 186 190 191 199 197 197 200 197 194 192 186 185 185 183 203 218 216 208 211 216 216 215 213 215 212 210 207 207 200
14 6 360 352 350 329 309 301 291 290 286 275 281 269 264 260 258 247 247 246 248 243 238 234 226 230 231 226 231 227 235 233 222 207 208 226 210 222 199 194 282 251 283 217 208 200 204 200 202 198 197 196 201 197 193 189 197 189 192 198 197 200 202 199 197 195 194 193 191 191 192 197 204 209 212 221 221 218 214 213 211 208 207 206 202
2 357 352 347 344 350 337 308 286 267 265 286 281 285 280 276 267 261 250 243 237 236 238 238 231 227 231 230 229 226 232 231 223 216 229 240 218 240 230 179 215 234 233 152 209 219 208 214 205 205 191 197 199 197 194 194 195 195 191 198 198 200 203 203 199 195 195 194 195 194 195 196 198 203 209 222 223 220 215 212 211 210 207 207 206
360 356 339 338 343 338 339 332 309 301 294 282 281 283 286 277 272 270 262 251 242 238 238 240 240 240 231 234 233 232 234 226 228 216 218 210 232 220 208 239 216 250 293 206 218 162 244 222 212 200 198 198 200 198 198 199 196 196 193 191 200 199 202 204 202 196 194 194 193 193 196 199 202 205 210 214 220 222 217 213 210 210 211 209 209
5 351 348 349 344 341 342 341 340 332 322 312 298 294 284 281 276 269 273 267 259 247 246 242 246 244 240 230 236 234 230 225 223 232 212 216 219 204 185 229 258 227 242 232 242 217 209 225 199 203 203 199 200 202 202 201 197 191 193 192 201 202 201 206 204 198 196 194 192 194 196 198 201 206 208 217 217 214 218 215 213 211 212 210 211
1 0 354 355 350 346 343 342 336 335 331 319 310 304 298 294 286 282 276 274 268 263 254 247 249 246 245 244 239 244 226 224 226 233 224 221 219 209 198 220 235 257 219 248 222 244 212 211 215 212 202 205 205 203 202 194 198 194 192 195 199 203 204 206 205 199 197 195 193 193 195 196 199 204 207 212 219 215 214 218 215 217 225 205 160
2 3 355 353 351 350 346 342 342 337 334 331 321 309 302 296 286 282 279 276 271 266 265 256 252 249 251 245 242 246 238 229 231 232 234 229 225 222 206 218 214 238 244 238 232 218 237 201 198 217 203 204 203 200 195 202 196 189 194 197 197 201 204 205 205 202 199 197 195 194 194 197 199 203 207 209 212 215 211 215 216 145 174 162 187
3 355 356 352 349 351 348 339 336 336 334 329 328 320 316 305 289 280 270 276 279 279 270 260 262 255 253 257 251 250 244 239 235 225 228 228 228 225 223 225 210 229 239 243 253 187 220 219 209 200 199 206 201 196 199 204 188 189 193 195 198 201 201 203 207 207 203 199 196 194 195 197 198 202 206 208 208 208 209 210 210 206 204 200 201
359 358 353 352 351 345 347 342 339 337 332 328 326 324 321 313 303 292 288 281 275 275 272 266 264 259 260 259 256 255 245 245 247 235 232 227 229 223 235 228 229 230 238 230 256 232 179 204 218 209 193 202 195 196 197 201 189 191 192 195 201 196 196 205 210 212 208 202 197 196 196 198 199 202 205 207 208 208 208 207 207 206 204 205 208
354 352 351 349 347 345 342 340 336 336 336 332 332 327 323 312 302 300 288 286 281 273 274 267 265 261 262 263 260 257 254 247 251 243 238 232 224 227 225 225 233 234 236 237 238 249 187 206 204 206 194 191 192 191 198 199 193 192 195 197 193 182 199 208 212 214 211 205 201 198 198 198 200 202 205 207 208 209 208 208 206 206 205 206 209
352 349 351 347 339 338 334 334 333 329 329 328 330 330 326 319 313 300 295 290 282 278 274 275 268 260 259 260 261 259 254 252 251 249 246 238 232 232 229 224 231 226 223 237 244 254 240 243 194 204 196 173 194 195 193 194 185 197 198 197 187 194 199 204 208 215 215 209 204 200 198 199 200 202 205 207 208 211 211 210 207 206 206 205 206
347 342 341 341 338 335 331 324 327 324 322 323 321 323 319 319 315 309 300 293 286 279 276 276 275 268 259 260 263 261 256 251 253 250 243 243 236 237 235 224 232 231 210 220 244 249 248 200 229 200 177 193 198 193 192 189 199 190 195 195 197 197 200 200 202 210 215 213 208 203 200 198 201 202 203 205 206 209 211 210 208 207 206 206 205
324 326 322 326 326 329 329 327 325 324 320 319 321 319 315 310 306 307 306 298 286 282 279 269 269 269 270 263 262 260 260 259 255 250 247 245 239 237 244 227 235 236 218 215 228 244 242 239 202 194 198 192 199 195 201 203 198 189 191 194 197 199 200 197 201 203 211 212 211 207 203 201 202 203 204 204 205 207 209 209 207 206 206 206 206
309 304 308 308 315 317 316 316 320 320 320 316 313 310 309 309 306 301 300 298 295 286 277 272 267 263 260 265 261 254 253 256 257 250 245 243 242 242 244 240 235 242 228 215 223 242 233 232 219 201 198 188 220 212 206 196 184 189 198 200 194 198 199 199 200 200 207 211 212 211 208 205 203 205 205 204 204 206 207 208 207 206 205 206 206
280 283 281 279 283 283 286 291 299 305 307 312 316 314 305 295 296 297 294 290 286 285 282 281 277 268 264 258 262 253 248 254 257 250 245 243 245 242 245 242 238 239 236 222 230 226 238 238 235 214 197 217 222 200 188 180 186 195 200 198 199 199 198 199 201 208 200 211 213 215 213 209 206 206 207 206 205 205 207 206 206 207 207 206 204
290 282 281 283 276 278 274 273 276 282 288 295 296 296 301 307 305 295 287 282 277 274 276 275 274 270 271 270 268 259 249 248 254 248 239 243 244 244 246 246 239 237 236 236 233 236 232 240 233 212 204 200 204 198 195 191 181 187 201 209 191 197 189 198 210 205 202 201 204 212 214 212 211 209 208 207 206 206 206 207 207 207 207 206 203
289 291 284 280 276 271 275 275 272 272 273 273 277 280 284 287 290 295 298 296 289 283 272 268 266 267 265 268 268 262 257 252 254 252 245 244 240 244 242 244 238 234 237 236 231 235 238 242 237 207 203 211 197 203 201 196 201 196 190 182 202 203 202 205 208 206 203 209 213 208 209 210 209 207 209 209 209 208 208 207 207 207 207 203 203
288 283 284 285 285 280 276 276 274 273 273 275 271 267 264 265 271 275 276 281 285 287 287 283 279 273 267 264 262 259 255 256 254 254 246 248 245 246 242 237 235 234 237 238 235 234 237 240 239 224 205 192 211 218 102 173 201 227 217 194 196 192 204 208 208 197 202 201 203 203 209 210 213 212 212 212 211 210 209 209 208 207 207 203 202
288 286 285 282 285 285 279 273 275 270 271 272 274 271 273 273 267 264 266 266 268 272 276 279 275 273 272 266 262 260 256 254 252 250 247 241 242 248 243 223 228 232 237 237 234 233 237 237 243 225 200 205 205 188 180 191 200 207 192 184 217 214 203 202 218 211 200 199 204 198 204 198 200 207 203 204 209 209 211 208 209 208 205 204 202
297 293 289 287 285 286 289 287 281 279 276 274 266 270 273 275 276 275 270 266 262 261 265 270 274 271 264 265 263 260 260 259 258 256 254 250 246 244 246 233 226 233 233 237 234 232 235 237 236 228 208 219 211 204 202 206 203 176 165 194 209 197 180 219 233 218 198 188 196 206 210 193 197 208 205 208 203 204 202 204 204 201 204 204 203
301 299 294 290 291 291 291 293 293 289 283 280 280 284 285 284 282 280 278 275 270 266 263 264 265 267 269 265 264 266 265 264 262 258 256 254 253 250 249 244 235 230 233 236 237 233 236 238 238 232 226 228 222 210 213 204 193 193 196 193 195 180 192 194 216 214 192 187 201 207 218 203 193 207 209 208 199 199 199 205 198 198 200 203 204
298 294 291 289 288 288 289 289 288 288 288 285 287 289 289 289 287 284 281 279 276 273 272 268 266 264 263 262 261 261 257 255 257 260 258 255 253 251 249 247 244 239 234 231 236 238 233 241 241 235 234 235 229 206 210 199 200 202 204 190 196 196 197 205 213 211 190 177 183 201 221 199 198 212 211 213 203 201 199 197 200 200 198 202 203
298 295 293 294 292 291 289 287 285 286 285 286 289 291 292 292 291 290 284 282 281 279 276 273 271 269 266 264 263 256 254 253 253 253 255 255 255 252 249 247 244 242 241 239 235 235 234 239 242 243 234 239 238 218 200 200 181 202 195 204 207 210 210 211 215 204 140 174 180 203 220 205 188 204 214 211 201 203 201 201 200 199 198 200 201
299 299 298 297 296 294 293 292 290 288 285 286 290 293 294 295 295 295 290 287 284 279 277 274 271 269 267 267 266 263 258 253 247 247 246 248 250 251 249 246 243 243 242 241 240 239 236 237 240 247 244 238 244 233 195 181 186 202 198 211 205 208 210 219 218 197 146 173 186 194 217 202 193 198 214 212 192 204 203 199 199 198 198 198 198
305 303 302 302 298 296 296 295 294 292 289 291 293 294 296 297 296 297 294 290 287 285 283 282 278 276 272 270 266 264 264 258 251 242 242 243 244 244 244 244 241 239 237 236 236 235 234 233 237 244 249 243 248 249 189 195 199 202 199 204 202 204 214 226 235 210 189 191 194 184 215 207 163 196 218 197 189 203 200 202 201 199 198 197 196
300 299 296 297 296 296 296 296 296 292 291 293 295 296 296 296 295 294 292 288 288 286 285 284 282 281 280 273 269 266 262 261 254 246 243 240 242 242 243 243 243 240 239 234 232 230 229 230 233 239 243 241 237 244 212 198 208 205 205 212 213 211 213 215 223 204 202 191 193 194 216 179 178 200 212 185 182 200 195 199 206 201 198 196 195
300 299 298 295 295 296 296 296 294 292 291 294 297 297 297 296 296 294 291 287 283 282 280 281 280 277 275 275 273 272 266 263 256 252 250 245 244 241 241 242 242 240 242 240 236 234 232 231 233 236 240 240 238 239 238 213 198 190 191 196 211 197 205 217 227 205 215 188 199 205 204 186 193 190 181 167 189 197 194 198 202 203 199 197 195
298 298 301 298 295 295 296 297 295 295 294 296 299 301 300 298 297 297 296 291 284 280 279 277 277 275 274 275 273 268 265 262 261 258 254 249 246 243 242 240 243 242 243 241 237 232 232 233 234 237 239 240 238 237 236 235 218 187 191 209 209 191 209 214 222 211 208 184 203 193 194 219 156 165 148 105 125 231 205 197 201 211 202 199 196
287 291 290 290 289 287 287 290 297 297 298 300 302 301 298 297 298 294 290 283 281 277 276 276 273 273 275 276 275 274 275 274 270 265 260 253 246 241 241 240 241 240 239 237 232 227 225 228 235 237 240 240 238 234 234 236 227 203 204 214 201 197 208 216 218 191 206 230 205 179 193 201 149 184 153 134 192 259 176 190 192 201 203 192 195